Back to catalog

STARLINK-37432

AliveCommunicationsSSO
NORAD 68896·PAYLOAD·🇺🇸 United States

Launched Apr 30, 2026 from Vandenberg Space Force Base

Loading…

Next Passes (next 24 hours)

TLE

FreshSource: CelesTrak SupGP

Epoch: Sep 14, 2026, 21:41 UTC

1 68896C 26097B   26257.90395833  .00091386  00000+0  28374-2 0  2572
2 68896  97.2855  92.1296 0001486  94.3667 297.7328 15.33386506    17

Track STARLINK-37432 in real time with AllMySat

Download on the App Store